Weather History for PHBK - February, 2013

Change the Weather History Date:

Tuesday, February 12, 2013

  Actual Average (PHLI) Record (PHLI)
Temperature  
Mean Temperature 70 °F 72 °F  
Max Temperature 78 °F 78 °F 85 °F (1986)
Min Temperature 63 °F 65 °F 55 °F (1963)
Degree Days  
Heating Degree Days 0 0  
Month to date heating degree days 0  
Since 1 July heating degree days 0  
Cooling Degree Days 6 7  
Month to date cooling degree days 84  
Year to date cooling degree days 293  
Growing Degree Days 20 (Base 50)    
Moisture  
Dew Point 58 °F    
Average Humidity 65    
Maximum Humidity 81    
Minimum Humidity 50    
Precipitation  
Precipitation 0.00 in 0.10 in 0.87 in (1985)
Month to date precipitation 1.32  
Year to date precipitation 5.07  
Snow  
Snow 0.00 in - - ()
Month to date snowfall  
Since 1 July snowfall  
Snow Depth -    
Sea Level Pressure  
Sea Level Pressure 30.16 in    
Wind  
Wind Speed 5 mph (SE)    
Max Wind Speed 12 mph    
Max Gust Speed -    
Visibility 10 miles    
Events      
T = Trace of Precipitation, MM = Missing Value Source: NWS Daily Summary

Daily Weather History Graph

Daily Weather History Graph

Search for Another Location

Airport or City:

Trip Planner

Search our weather history database for the weather conditions in past years. The results will help you decide how hot, cold, wet, or windy it might be!

Date:

Astronomy

Feb. 12, 2013 Rise Set
Actual Time 7:11 AM HST 6:35 PM HST
Civil Twilight 6:49 AM HST 6:58 PM HST
Nautical Twilight 6:22 AM HST 7:24 PM HST
Astronomical Twilight 5:56 AM HST 7:50 PM HST
Moon 8:42 AM HST (2/12) 9:16 PM HST (2/12)
Length of Visible Light 12h 09m
Length of Day
11h 23m
Waxing Crescent, 8% of the Moon is Illuminated
Feb 12
Waxing Crescent
Feb 17
First Quarter
Feb 25
Full
Mar 4
Last Quarter
Mar 11
New

Hourly Weather History & Observations

Time (HST) Temp. Dew Point Humidity Pressure Visibility Wind Dir Wind Speed Gust Speed Precip Events Conditions
12:56 AM 68.0 °F 57.0 °F 68% 30.22 in 10.0 mi ENE 4.6 mph - N/A   Clear
1:56 AM 68.0 °F 57.0 °F 68% 30.20 in 10.0 mi East 4.6 mph - N/A   Clear
2:56 AM 64.0 °F 57.0 °F 78% 30.19 in 10.0 mi SE 4.6 mph - N/A   Clear
3:56 AM 64.0 °F 57.0 °F 78% 30.19 in 10.0 mi ENE 4.6 mph - N/A   Clear
4:56 AM 63.0 °F 57.0 °F 81% 30.17 in 10.0 mi East 5.8 mph - N/A   Clear
5:56 AM 63.0 °F 55.0 °F 75% 30.18 in 10.0 mi ESE 3.5 mph - N/A   Clear
6:56 AM 63.0 °F 55.0 °F 75% 30.19 in 10.0 mi East 3.5 mph - N/A   Clear
7:56 AM 66.9 °F 55.9 °F 68% 30.20 in 10.0 mi ENE 3.5 mph - N/A   Clear
8:56 AM 73.0 °F 55.0 °F 53% 30.21 in 10.0 mi SE 3.5 mph - N/A   Clear
9:56 AM 75.2 °F - N/A% - 10.0 mi SSW 4.6 mph - N/A   Clear
10:56 AM 75.9 °F 55.9 °F 50% 30.21 in 10.0 mi West 8.1 mph - N/A   Clear
11:56 AM 75.9 °F 55.9 °F 50% 30.19 in 10.0 mi West 8.1 mph - N/A   Partly Cloudy
12:56 PM 77.0 °F 57.0 °F 50% 30.16 in 10.0 mi West 8.1 mph - N/A   Scattered Clouds
1:56 PM 78.1 °F 59.0 °F 52% 30.14 in 10.0 mi WSW 6.9 mph - N/A   Scattered Clouds
2:56 PM 78.1 °F 60.1 °F 54% 30.12 in 10.0 mi WSW 8.1 mph - N/A   Mostly Cloudy
3:56 PM 78.1 °F 60.1 °F 54% 30.11 in 10.0 mi West 8.1 mph - N/A   Partly Cloudy
4:56 PM 77.0 °F 62.1 °F 60% 30.12 in 10.0 mi WSW 10.4 mph - N/A   Mostly Cloudy
5:26 PM 75.2 °F 62.6 °F 65% 30.11 in 10.0 mi West 11.5 mph - N/A   Mostly Cloudy
5:53 PM 75.2 °F 64.4 °F 69% 30.11 in 10.0 mi Variable 4.6 mph - N/A   Mostly Cloudy
5:56 PM 75.0 °F 64.0 °F 69% 30.12 in 10.0 mi Calm Calm - N/A   Mostly Cloudy
6:56 PM 73.0 °F 62.1 °F 68% 30.12 in 10.0 mi Calm Calm - N/A   Mostly Cloudy
7:56 PM 71.1 °F 64.9 °F 81% 30.14 in 10.0 mi East 3.5 mph - N/A   Mostly Cloudy
8:56 PM 70.0 °F 57.0 °F 63% 30.16 in 10.0 mi NE 3.5 mph - N/A   Mostly Cloudy
9:56 PM 70.0 °F 53.1 °F 55% 30.16 in 10.0 mi Calm Calm - N/A   Partly Cloudy
10:56 PM 68.0 °F 54.0 °F 61% 30.17 in 10.0 mi ENE 3.5 mph - N/A   Clear
11:56 PM 66.0 °F 55.9 °F 70% 30.16 in 10.0 mi East 5.8 mph - N/A   Clear